www.pogodaiklimat.ru

Погода и климат >> Архив погоды >> Франция >> Гренобль


ПОГОДА в Гренобле

  • Прогноз погоды в Гренобле
  • Монитор погоды в Гренобле

АРХИВ ПОГОДЫ в Гренобле

Время (UTC), дата Ветер
(напр.,м/с)
 
Видим.   Явления Облачность Т
(С)
Тd
(С)
f
(%)
Тe
(С)
Тes
(С)
Комфортность P
(гПа)
Po
(гПа)
Тmin
(С)
Tmax
(С)
R
(мм)
R24
(мм)
S
(см)
19 16.08 штиль 0
{2}
н/о н/о +20.9 +15.4 71 +24 +24 комфорт 1015.4 990.0
20 16.08 штиль 0
{2}
н/о н/о +18.7 +14.6 77 +19 +19 1016.2 990.6
21 16.08 СВ 2
{3}
н/о н/о +17.8 +14.7 82 +19 +19 1016.6 990.9
22 16.08 С 1
{2}
н/о н/о +16.5 +14.0 85 +18 +18 1017.0 991.2
23 16.08 В 1
{2}
н/о н/о +15.5 +12.8 84 +17 +17 1017.1 991.2
00 17.08 штиль 0
{2}
н/о н/о +14.8 +13.2 90 +14 +14 1016.8 990.8
01 17.08 штиль 0
{1}
н/о н/о +14.5 +13.2 92 +14 +14 1016.8 990.8
02 17.08 штиль 0
{2}
н/о н/о +13.8 +12.7 93 +13 +13 1016.9 990.8
03 17.08 С 1
{2}
н/о н/о +13.1 +12.0 93 +13 +13 1017.3 991.2
04 17.08 штиль 0
{2}
н/о н/о +13.0 +11.6 91 +12 +12 1017.0 990.9
05 17.08 В 1
{2}
н/о н/о +12.8 +11.5 92 +14 +14 1017.3 991.1
06 17.08 СВ 1
{2}
н/о н/о +14.6 +13.6 94 +15 +15 1016.9 990.9 +12.5 +24.8
07 17.08 В 1
{3}
н/о н/о +17.5 +14.0 80 +19 +19 1016.7 991.0
08 17.08 СВ 1
{3}
н/о н/о +21.0 +13.7 63 +25 +25 комфорт 1016.2 990.8
09 17.08 СВ 2
{3}
н/о н/о +23.1 +14.1 57 +27 +27 душно 1015.9 990.7
10 17.08 С 1
{3}
н/о н/о +24.8 +14.6 53 +27 +27 жарко 1015.3 990.2
11 17.08 СВ 1
{2}
н/о н/о +27.1 +14.5 46 +30 +30 душно 1014.4 989.6
12 17.08 штиль 0
{3}
н/о н/о +29.9 +13.6 37 +31 +31 жарко 1013.5 988.9
13 17.08 ЮЗ 2
{3}
н/о н/о +30.5 +14.2 37 +32 +32 жарко 1012.7 988.2
14 17.08 З 2
{3}
н/о н/о +31.6 +15.5 38 +34 +34 душно 1011.9 987.5
15 17.08 ЮЗ 2
{3}
н/о н/о +32.1 +15.6 37 +35 +35 очень
душно
1011.3 986.9
16 17.08 З 2
{3}
н/о н/о +32.4 +16.3 38 +35 +35 душно 1010.9 986.6
17 17.08 З 1
{3}
н/о н/о +31.5 +18.1 45 +36 +36 очень
душно
1010.6 986.2
18 17.08 С 2
{3}
н/о н/о +26.9 +19.3 63 +32 +32 очень
душно
1011.1 986.4 +14.5 +32.8
19 17.08 штиль 0
{3}
н/о н/о +24.3 +17.8 67 +28 +28 душно 1011.8 986.8
20 17.08 С 1
{1}
н/о н/о +21.6 +17.0 75 +26 +26 душно 1012.6 987.4
21 17.08 штиль 0
{1}
н/о н/о +19.6 +15.9 79 +21 +21 комфорт 1013.2 987.8
22 17.08 штиль 0
{2}
н/о н/о +18.8 +15.5 81 +20 +20 1013.4 987.9
23 17.08 С 1
{1}
н/о н/о +17.7 +15.1 85 +19 +19 1013.8 988.2
00 18.08 З 1
{2}
н/о н/о +16.6 +14.6 88 +18 +18 1014.0 988.3
01 18.08 С 1
{1}
н/о н/о +16.3 +14.1 87 +18 +18 1014.0 988.2
02 18.08 С 1
{1}
н/о н/о +15.5 +13.3 87 +17 +17 1013.8 988.0
03 18.08 штиль 0
{1}
н/о н/о +14.9 +13.4 91 +15 +15 1013.6 987.7
04 18.08 СВ 1
{1}
н/о н/о +14.7 +13.6 93 +15 +15 1013.4 987.5
05 18.08 штиль 0
{1}
н/о н/о +14.5 +13.4 93 +14 +14 1013.3 987.4
06 18.08 штиль 0
{1}
н/о н/о +15.8 +15.2 96 +16 +16 1012.9 987.1 +14.0 +26.7
07 18.08 ЮЗ 1
{2}
н/о н/о +19.4 +15.3 77 +23 +23 комфорт 1012.3 986.9
08 18.08 ЮЗ 2
{3}
н/о н/о +22.7 +15.5 64 +27 +27 душно 1011.7 986.6
09 18.08 ЮЗ 1
{3}
н/о н/о +25.3 +16.7 59 +29 +29 душно 1011.2 986.3
10 18.08 Ю 2
{4}
н/о н/о +28.6 +15.2 44 +31 +31 жарко 1010.6 986.0
11 18.08 Ю 2
{5}
н/о н/о +30.8 +15.6 40 +33 +33 душно 1009.7 985.3
12 18.08 ЮВ 2
{4}
н/о н/о +33.1 +16.5 37 +36 +36 очень
душно
1008.6 984.4
13 18.08 ЮЗ 6
{10}
н/о н/о +33.5 +16.8 37 +37 +37 очень
душно
1008.4 984.2
14 18.08 ЮЗ 6
{10}
н/о н/о +32.9 +15.9 36 +35 +35 душно 1008.5 984.3
15 18.08 ЮЗ 4
{8}
н/о н/о +33.4 +16.7 37 +36 +36 очень
душно
1007.7 983.5
16 18.08 Ю 3
{7}
н/о н/о +33.8 +17.5 38 +37 +37 очень
душно
1007.8 983.7
17 18.08 Ю 3
{8}
н/о н/о +32.6 +17.2 40 +36 +36 очень
душно
1007.9 983.7
18 18.08 Ю 3
{6}
н/о н/о +30.2 +16.6 44 +34 +34 очень
душно
1008.2 983.8 +15.8 +33.8
19 18.08 С 2
{5}
н/о н/о +25.7 +18.1 63 +30 +30 душно 1009.2 984.4
20 18.08 СВ 1
{2}
н/о н/о +24.1 +18.1 69 +28 +28 душно 1011.0 986.0
21 18.08 ЮВ 1
{4}
н/о н/о +24.9 +17.4 63 +29 +29 душно 1012.1 987.2
22 18.08 СВ 3
{4}
н/о н/о +23.6 +17.6 69 +28 +28 душно 1013.0 987.9
23 18.08 С 1
{4}
н/о н/о +23.3 +17.7 71 +29 +29 душно 1013.2 988.1
00 19.08 штиль 0
{3}
н/о н/о +22.4 +18.0 76 +27 +27 душно 1013.7 988.5
01 19.08 З 1
{2}
н/о н/о +22.1 +17.9 77 +27 +27 душно 1014.3 989.1
02 19.08 СЗ 1
{3}
н/о н/о +22.8 +17.3 71 +28 +28 душно 1015.0 989.8
03 19.08 СВ 2
{7}
н/о н/о +22.9 +16.2 66 +27 +27 душно 1014.9 989.7
04 19.08 З 2
{6}
н/о н/о +20.5 +17.7 84 +25 +25 комфорт 1015.8 990.4
05 19.08 СЗ 4
{9}
н/о н/о +18.9 +17.0 89 +20 +20 1017.3 991.7
06 19.08 ЮЗ 2
{4}
н/о н/о +18.9 +17.6 92 +21 +21 комфорт 1017.2 991.6 +18.7 +30.3
07 19.08 В 2
{4}
н/о н/о +19.4 +18.1 92 +22 +22 комфорт 1016.8 991.3 7
08 19.08 штиль 0
{3}
н/о н/о +20.3 +17.3 83 +23 +23 комфорт 1017.4 991.9
09 19.08 Ю 1
{3}
н/о н/о +22.1 +17.5 75 +27 +27 душно 1017.2 991.9 7
10 19.08 СВ 4
{6}
н/о н/о +23.9 +18.3 71 +28 +28 душно 1016.9 991.8
11 19.08 ЮВ 1
{7}
н/о н/о +24.7 +16.7 61 +28 +28 душно 1016.2 991.1
12 19.08 СЗ 2
{4}
н/о н/о +25.6 +17.8 62 +30 +30 душно 1016.0 991.0
13 19.08 С 3
{6}
н/о н/о +25.5 +18.7 66 +30 +30 душно 1016.2 991.2
14 19.08 СВ 2
{6}
н/о н/о +25.7 +18.4 64 +30 +30 душно 1016.0 991.0
15 19.08 ЮЗ 5
{7}
н/о н/о +24.3 +18.2 69 +29 +29 душно 1016.2 991.1
16 19.08 ЮЗ 3
{8}
н/о н/о +23.3 +17.5 70 +29 +29 душно 1016.7 991.5
17 19.08 З 2
{5}
н/о н/о +22.4 +16.9 71 +27 +27 душно 1017.3 992.0
18 19.08 З 2
{3}
н/о н/о +21.4 +16.4 73 +25 +25 комфорт 1017.9 992.5 +18.9 +26.1
19 19.08 С 1
{3}
н/о н/о +20.8 +16.2 75 +25 +25 комфорт 1018.6 993.1
20 19.08 З 1
{4}
н/о н/о +20.5 +16.1 76 +25 +25 комфорт 1019.3 993.8
21 19.08 З 2
{3}
н/о н/о +19.7 +15.3 76 +23 +23 комфорт 1019.6 994.0
22 19.08 ЮЗ 2
{4}
н/о н/о +19.1 +15.6 80 +21 +21 комфорт 1020.2 994.5
23 19.08 Ю 1
{3}
н/о н/о +18.7 +15.4 81 +21 +21 комфорт 1019.5 993.8
00 20.08 СЗ 2
{5}
н/о н/о +18.6 +15.1 80 +20 +20 1019.9 994.2
01 20.08 СЗ 3
{4}
н/о н/о +18.5 +15.2 81 +19 +19 1019.7 994.0
02 20.08 ЮЗ 2
{3}
н/о н/о +18.4 +15.3 82 +20 +20 1019.6 993.9
03 20.08 ЮЗ 1
{2}
н/о н/о +18.1 +15.7 86 +19 +19 1019.3 993.6 0.2
04 20.08 Ю 3
{7}
н/о н/о +17.2 +15.7 91 +17 +17 1019.3 993.5 3
05 20.08 Ю 1
{4}
н/о н/о +17.0 +15.9 93 +18 +18 1019.6 993.8 0.6
06 20.08 С 2
{3}
н/о н/о +16.8 +15.8 94 +17 +17 1020.3 994.4 +16.7 +21.4 7
07 20.08 Ю 2
{2}
н/о н/о +16.9 +16.1 95 +17 +17 1020.2 994.4 2
08 20.08 ЮВ 1
{3}
н/о н/о +17.0 +16.0 94 +18 +18 1020.3 994.5 2
09 20.08 В 1
{5}
н/о н/о +16.6 +15.6 94 +17 +17 1020.3 994.4 5
10 20.08 З 2
{6}
н/о н/о +16.3 +15.5 95 +17 +17 1021.2 995.3 2
11 20.08 ЮЗ 3
{10}
н/о н/о +16.3 +15.5 95 +16 +16 1022.0 996.1 2
12 20.08 З 2
{6}
н/о н/о +16.5 +15.9 96 +17 +17 1022.2 996.3 6
13 20.08 СВ 1
{5}
н/о н/о +16.6 +15.0 90 +17 +17 1022.9 997.0 1
14 20.08 Ю 2
{4}
н/о н/о +15.9 +14.6 92 +16 +16 1024.6 998.5 17
15 20.08 В 2
{6}
н/о н/о +16.1 +14.6 91 +16 +16 1023.7 997.7 20
16 20.08 СЗ 1
{3}
н/о н/о +16.0 +14.7 92 +17 +17 1024.5 998.5 0.6
17 20.08 ЮВ 1
{4}
н/о н/о +15.9 +14.6 92 +17 +17 1024.9 998.8 0.6
18 20.08 В 2
{4}
н/о н/о +15.6 +14.1 91 +15 +15 1024.5 998.4 +15.6 +17.1 1
19 20.08 С 6
{10}
н/о н/о +15.1 +13.3 89 +13 +13 1024.0 997.9 0.8
20 20.08 ЮЗ 2
{8}
н/о н/о +14.4 +12.8 90 +14 +14 1024.6 998.4
21 20.08 Ю 1
{4}
н/о н/о +14.3 +13.5 95 +15 +15 1025.1 998.9 0.8
22 20.08 З 1
{3}
н/о н/о +14.3 +13.2 93 +15 +15 1025.1 998.9
23 20.08 ЮВ 1
{2}
н/о н/о +14.2 +13.4 95 +15 +15 1024.8 998.6
00 21.08 штиль 0
{2}
н/о н/о +14.4 +13.6 95 +14 +14 1024.6 998.4
01 21.08 штиль 0
{2}
н/о н/о +14.5 +13.5 94 +14 +14 1024.5 998.3
02 21.08 штиль 0
{1}
н/о н/о +14.5 +13.4 93 +14 +14 1024.3 998.1
03 21.08 штиль 0
{1}
н/о н/о +14.3 +12.8 91 +14 +14 1024.1 997.9
04 21.08 В 1
{2}
н/о н/о +14.4 +12.3 87 +15 +15 1024.0 997.8
05 21.08 С 1
{2}
н/о н/о +14.4 +12.4 88 +15 +15 1024.1 997.9
06 21.08 штиль 0
{2}
н/о н/о +14.5 +12.2 86 +14 +14 1024.4 998.2 +13.9 +15.6
07 21.08 СВ 1
{2}
н/о н/о +15.0 +12.1 83 +15 +15 1024.1 998.0
08 21.08 С 1
{2}
н/о н/о +15.6 +12.3 81 +17 +17 1024.1 998.0
09 21.08 С 2
{3}
н/о н/о +16.8 +12.7 77 +17 +17 1024.0 998.0
10 21.08 СВ 3
{4}
н/о н/о +18.3 +13.2 72 +19 +19 1023.7 997.9
11 21.08 С 2
{4}
н/о н/о +19.4 +13.3 68 +21 +21 комфорт 1022.8 997.1
12 21.08 СВ 4
{7}
н/о н/о +20.0 +13.2 65 +22 +22 комфорт 1022.1 996.5
13 21.08 СВ 4
{7}
н/о н/о +21.2 +13.9 63 +24 +24 комфорт 1022.0 996.5
14 21.08 СВ 4
{6}
н/о н/о +20.6 +13.1 62 +23 +23 комфорт 1022.1 996.5
15 21.08 СВ 4
{6}
н/о н/о +20.6 +13.3 63 +23 +23 комфорт 1021.9 996.3
16 21.08 СВ 2
{7}
н/о н/о +21.4 +13.3 60 +24 +24 комфорт 1021.5 996.0
17 21.08 СВ 3
{5}
н/о н/о +20.7 +13.9 65 +24 +24 комфорт 1021.3 995.7
18 21.08 СВ 3
{5}
н/о н/о +20.3 +13.0 63 +23 +23 комфорт 1021.4 995.8 +14.5 +21.5
19 21.08 ЮЗ 1
{3}
н/о н/о +19.1 +15.0 77 +22 +22 комфорт 1022.1 996.4
20 21.08 штиль 0
{2}
н/о н/о +18.7 +14.6 77 +19 +19 1022.5 996.7
21 21.08 штиль 0
{1}
н/о н/о +18.5 +15.2 81 +19 +19 1022.5 996.7
22 21.08 штиль 0
{1}
н/о н/о +18.0 +14.9 82 +18 +18 1022.5 996.7
23 21.08 штиль 0
{1}
н/о н/о +17.9 +15.5 86 +18 +18 1022.4 996.6
00 22.08 штиль 0
{2}
н/о н/о +17.9 +15.5 86 +18 +18 1022.2 996.4
01 22.08 штиль 0
{2}
н/о н/о +17.8 +14.7 82 +18 +18 1021.8 996.0
02 22.08 штиль 0
{1}
н/о н/о +17.6 +15.4 87 +18 +18 1021.5 995.7
03 22.08 СВ 1
{1}
н/о н/о +17.3 +15.8 91 +18 +18 1021.4 995.6
04 22.08 штиль 0
{2}
н/о н/о +17.2 +15.4 89 +17 +17 1021.5 995.6
05 22.08 штиль 0
{2}
н/о н/о +17.4 +15.2 87 +17 +17 1021.7 995.9
06 22.08 СВ 1
{2}
н/о н/о +17.6 +15.4 87 +19 +19 1022.1 996.3 +17.2 +20.4
07 22.08 С 2
{2}
н/о н/о +18.4 +15.3 82 +20 +20 1022.3 996.5
08 22.08 СВ 1
{2}
н/о н/о +19.0 +14.7 76 +21 +21 комфорт 1022.5 996.8
09 22.08 СВ 3
{4}
н/о н/о +19.7 +14.5 72 +22 +22 комфорт 1022.7 997.0
10 22.08 СВ 3
{5}
н/о н/о +20.7 +15.0 70 +24 +24 комфорт 1022.7 997.1
11 22.08 СВ 3
{5}
н/о н/о +21.9 +15.0 65 +25 +25 комфорт 1022.5 997.0
12 22.08 В 2
{4}
н/о н/о +22.9 +15.0 61 +27 +27 душно 1022.2 996.8
13 22.08 С 1
{2}
н/о н/о +23.9 +16.2 62 +27 +27 жарко 1021.7 996.4
14 22.08 Ю 1
{3}
н/о н/о +24.1 +15.6 59 +27 +27 жарко 1021.2 995.9
15 22.08 СВ 4
{5}
н/о н/о +23.9 +16.4 63 +27 +27 жарко 1021.1 995.8
16 22.08 СВ 2
{4}
н/о н/о +24.7 +16.1 59 +28 +28 душно 1020.9 995.7
17 22.08 СВ 2
{6}
н/о н/о +23.4 +16.4 65 +28 +28 душно 1021.1 995.8
18 22.08 СВ 1
{2}
н/о н/о +22.7 +16.0 66 +27 +27 душно 1021.5 996.1 +17.6 +24.8
19 22.08 штиль 0
{1}
н/о н/о +19.8 +16.4 81 +22 +22 комфорт 1022.1 996.5
20 22.08 штиль 0
{1}
н/о н/о +18.5 +16.5 88 +19 +19 1022.7 996.9
21 22.08 СВ 1
{2}
н/о н/о +18.1 +16.6 91 +19 +19 1022.8 997.0
22 22.08 СВ 2
{2}
н/о н/о +18.9 +16.7 87 +21 +21 комфорт 1022.7 997.0
23 22.08 СВ 2
{3}
н/о н/о +18.5 +16.3 87 +20 +20 1022.7 996.9
00 23.08 штиль 0
{3}
н/о н/о +18.3 +16.3 88 +19 +19 1022.5 996.7
01 23.08 штиль 0
{1}
н/о н/о +18.4 +16.7 90 +19 +19 1022.4 996.6
02 23.08 штиль 0
{2}
н/о н/о +18.6 +16.7 89 +19 +19 1022.2 996.5
03 23.08 СВ 1
{2}
н/о н/о +18.6 +16.6 88 +21 +21 комфорт 1022.0 996.3
04 23.08 СВ 1
{2}
н/о н/о +18.7 +15.9 84 +21 +21 комфорт 1022.0 996.3
05 23.08 СВ 1
{2}
н/о н/о +18.6 +16.0 85 +21 +21 комфорт 1022.0 996.3
06 23.08 СВ 2
{4}
н/о н/о +18.8 +15.5 81 +20 +20 1022.1 996.4 +18.0 +22.6
07 23.08 С 3
{5}
н/о н/о +19.1 +15.6 80 +21 +21 комфорт 1022.4 996.7
08 23.08 СВ 4
{5}
н/о н/о +20.4 +16.0 76 +24 +24 комфорт 1022.1 996.5
09 23.08 СВ 4
{6}
н/о н/о +21.8 +16.7 73 +26 +26 душно 1021.4 996.0
10 23.08 СВ 3
{6}
н/о н/о +23.4 +16.9 67 +29 +29 душно 1021.0 995.7
11 23.08 СВ 2
{5}
н/о н/о +24.9 +16.9 61 +29 +29 душно 1020.3 995.2
12 23.08 С 2
{4}
н/о н/о +25.7 +16.5 57 +29 +29 душно 1019.6 994.5
13 23.08 СВ 2
{4}
н/о н/о +26.6 +17.9 59 +31 +31 душно 1019.0 994.0
14 23.08 СВ 3
{5}
н/о н/о +26.4 +17.7 59 +31 +31 душно 1018.7 993.7
15 23.08 С 5
{7}
н/о н/о +26.3 +18.4 62 +31 +31 душно 1018.2 993.2
16 23.08 С 4
{7}
н/о н/о +26.4 +17.7 59 +31 +31 душно 1018.0 993.0
17 23.08 С 4
{6}
н/о н/о +25.9 +17.5 60 +30 +30 душно 1018.1 993.1

 

Местоположение метеостанции Гренобль (Франция): широта 45.22 долгота 5.85 высота над уровнем моря 220 м.

В архиве по умолчанию представлена погода в Гренобле за последнюю неделю. Архивные данные за месяц целиком и за предыдущие месяцы, начиная с января 2011 года, Вы можете получить, выбрав интересующий диапазон дат из раскрывающегося списка и нажав кнопку "Ввод!".


*Определитесь, кто Вы:
робот инопланетянин человек

Внимание! Время в таблицах - всемирное. Для получения местного времени необходимо прибавить поправку, которая равна 1 ч.

Смотрите также архив погоды в соседних городах и на ближайших метеорологических станциях:

Погода в Гренобль аэропорту (Франция) (44 км)
Погода в Шамбери (Франция) (46 км)
Погода в Бриансоне (Франция) (71 км)
Погода в Анси (Франция) (82 км)
Погода в Лионе (Франция) (83 км)
Погода в Бур-сен-Морисе (Франция) (84 км)
Погода в Амбрёне (Франция) (89 км)
Погода в Лион аэропорту (Франция) (90 км)
Погода в Амберьё-ан-Бюже (Франция) (94 км)
Погода в Монтелимаре (Франция) (113 км)

Пояснения к столбцам:

Ветер - указаны скорость ветра в м/с - средняя за 10 мин, порывы в срок и между сроками (в фигурных скобках) и направление, откуда дует ветер: С - северный, СВ - северо-восточный, В - восточный, ЮВ - юго-восточный, Ю - южный, ЮЗ - юго-западный, З - западный, СЗ - северо-западный.
Видимость - горизонтальная дальность видимости в метрах или километрах. При видимости от 1 до 10 км при отсутствии осадков обычно наблюдается дымка, при ухудшении видимости до 1 км и менее - туман. В сухую погоду видимость может ухудшаться дымом, пылью или мглою.
Явления - указаны атмосферные явления, наблюдавшиеся в срок или в последний час перед сроком; фигурными скобками обозначены явления, наблюдавшиеся между сроками (за 1-3 часа до срока); квадратными скобками обозначены град или гололедные отложения с указанием их диаметра в мм.
Облачность - указаны через наклонную черту общая и нижняя облачность в баллах и высота нижней границы облаков в метрах; квадратными скобками обозначены формы облаков: Ci - перистые, Cs - перисто-слоистые, Cc - перисто-кучевые, Ac - высококучевые, As - высокослоистые, Sc - слоисто-кучевые, Ns - слоисто-дождевые, Cu - кучевые, Cb - кучево-дождевые. Подробнее классификацию облаков см. в Атласе облаков (PDF).
T - Температура воздуха - температура, измеренная на высоте 2 м над землей.
Td - Температура точки росы - температура, при понижении до которой содержащийся в воздухе водяной пар достигнет насыщения.
f - Относительная влажность воздуха - влажноcть воздуха, измеренная на высоте 2 м над землей.
Te - Эффективная температура - температура, которую ощущает одетый по сезону человек в тени. Характеристика душности погоды. При расчете учитывается влияние влажности воздуха и скорости ветра на теплоощущения человека.
Tes - Эффективная температура на солнце - температура, которую ощущает человек, с поправкой на солнечный нагрев. Характеристика знойности погоды. Зависит от высоты солнца над горизонтом, облачности и скорости ветра. Ночью, в пасмурную погоду, а также при ветре 12 м/с и более поправка равна нулю.
P - Атмосферное давление - приведенное к уровню моря атмосферное давление.
Po - Атмосферное давление - измеренное на уровне метеостанции атмосферное давление.
Tmin - Минимальная температура - минимум температуры воздуха на высоте 2 м над землей.
Tmax - Максимальная температура - максимум температуры воздуха на высоте 2 м над землей.
R - Количество осадков - Количество выпавших осадков за период времени, мм. При наведении курсора мыши на число - период времени, за который выпало указанное количество осадков.
R24 - Количество осадков - Количество выпавших осадков за 24 часа, мм.
S - Снежный покров - Высота снежного покрова, см. При наведении курсора мыши на число - состояние снежного покрова и степень покрытия местности в баллах.